Location: الشقيري
(17.1356°N, 42.8272°E)
Time: 05:33:33
(UTC+00:00)

N. Korean satellite - Pass Details

Date: 19 November 2019
Orbit: 456 x 506 km, 97.2° (Epoch: 07 December)

Event Time Altitude Azimuth Distance (km) Brightness Sun altitude
Rises 15:02:27 0° 192° (SSW) 2,519 10.6 -7.5°
Reaches altitude 10° 15:04:46 10° 207° (SSW) 1,653 10.0 -8.1°
Maximum altitude 15:07:41 24° 262° (W) 1,051 9.4 -8.7°
Drops below altitude 10° 15:10:38 10° 317° (NW) 1,679 9.6 -9.4°
Sets 15:13:01 0° 331° (NNW) 2,571 10.4 -9.9°
